Location: ???? ???? ?????
(31.2680°N, 31.7283°E)
Time: 18:24:51
(UTC+00:00)

Cosmos 923 Rocket - Pass Details

Date: 13 July 2020
Orbit: 757 x 786 km, 74.0° (Epoch: 06 August)

Event Time Altitude Azimuth Distance (km) Brightness Sun altitude
Rises 18:40:15 0° 202° (SSW) 3,212 7.0 -18.8°
Reaches altitude 10° 18:42:37 10° 205° (SSW) 2,294 6.3 -19.2°
Maximum altitude 18:47:48 67° 287° (WNW) 835 4.3 -20.0°
Drops below altitude 10° 18:53:03 10° 10° (N) 2,326 6.9 -20.8°
Sets 18:55:28 0° 13° (NNE) 3,261 7.7 -21.2°
